GW6149 Weather Reports


Display with metric or nautical units.
time (UTC)temp
F
wind
direction
speed
MPH
gust
MPH
rain 1hr
in
rain 24hr
in
rain mn
in
humidity
%
barometer
mb
20260504234510 69 239 9.0 11.0 0.00 0.00 0.00 49 1008.7
20260504234007 69 244 9.0 13.0 0.00 0.00 0.00 49 1008.8
20260504233502 70 276 4.0 9.0 0.00 0.00 0.00 49 1008.6
20260504233000 71 244 2.0 10.0 0.00 0.00 0.00 49 1008.7
20260504232457 71 238 8.0 14.0 0.00 0.00 0.00 48 1008.6
20260504231954 71 242 9.0 14.0 0.00 0.00 0.00 48 1008.7
20260504231450 72 237 6.0 10.0 0.00 0.00 0.00 48 1008.6
20260504230947 72 234 11.0 14.0 0.00 0.00 0.00 47 1008.7
20260504230443 72 236 8.0 15.0 0.00 0.00 0.00 46 1008.6
20260504225943 72 247 13.0 18.0 0.00 0.00 0.00 45 1008.4
20260504225439 72 215 9.0 15.0 0.00 0.00 0.00 45 1008.5
20260504224936 72 234 13.0 18.0 0.00 0.00 0.00 45 1008.4
20260504224432 73 243 16.0 17.0 0.00 0.00 0.00 44 1008.6
20260504223930 73 247 14.0 15.0 0.00 0.00 0.00 44 1008.5
20260504223425 73 234 6.0 13.0 0.00 0.00 0.00 47 1008.4
20260504222921 74 316 7.0 15.0 0.00 0.00 0.00 48 1008.2
20260504222419 73 260 2.0 9.0 0.00 0.00 0.00 47 1008.2
20260504221917 73 209 8.0 11.0 0.00 0.00 0.00 47 1008.4
20260504221413 74 238 6.0 8.0 0.00 0.00 0.00 47 1008.6
20260504220910 74 321 5.0 8.0 0.00 0.00 0.00 47 1008.5
20260504220407 73 38 7.0 14.0 0.00 0.00 0.00 46 1008.4
20260504215904 72 235 7.0 23.0 0.00 0.00 0.00 48 1008.3
20260504215401 72 233 10.0 16.0 0.00 0.00 0.00 48 1008.6
20260504214857 72 265 7.0 15.0 0.00 0.00 0.00 49 1008.4
20260504214354 73 39 8.0 18.0 0.00 0.00 0.00 48 1008.4
20260504213851 72 166 7.0 14.0 0.00 0.00 0.00 48 1008.3
20260504213346 72 293 8.0 13.0 0.00 0.00 0.00 49 1008.5
20260504212844 72 276 7.0 10.0 0.00 0.00 0.00 48 1008.5
20260504212340 72 180 5.0 7.0 0.00 0.00 0.00 49 1008.5
20260504211838 72 200 6.0 14.0 0.00 0.00 0.00 48 1008.5
20260504211333 72 275 4.0 11.0 0.00 0.00 0.00 47 1008.5
20260504210831 74 229 10.0 17.0 0.00 0.00 0.00 45 1008.4
20260504210328 73 310 6.0 13.0 0.00 0.00 0.00 46 1008.4
20260504205825 72 209 6.0 11.0 0.00 0.00 0.00 47 1008.6
20260504205323 73 227 7.0 10.0 0.00 0.00 0.00 46 1008.6
20260504204821 75 227 8.0 15.0 0.00 0.00 0.00 45 1008.6
20260504204319 74 255 6.0 11.0 0.00 0.00 0.00 45 1008.5
20260504203818 73 244 13.0 18.0 0.00 0.00 0.00 46 1008.4
20260504203315 72 318 1.0 10.0 0.00 0.00 0.00 47 1008.6
20260504202810 72 225 13.0 17.0 0.00 0.00 0.00 46 1008.6
20260504202308 72 61 4.0 11.0 0.00 0.00 0.00 46 1008.6
20260504201804 74 64 5.0 11.0 0.00 0.00 0.00 45 1008.7
20260504201302 73 213 7.0 17.0 0.00 0.00 0.00 46 1008.8
20260504200759 72 249 6.0 16.0 0.00 0.00 0.00 46 1008.7
20260504200255 73 5 9.0 14.0 0.00 0.00 0.00 46 1008.8
20260504195752 73 219 5.0 13.0 0.00 0.00 0.00 46 1008.9
20260504195247 73 234 9.0 21.0 0.00 0.00 0.00 46 1008.9
20260504194745 73 245 12.0 15.0 0.00 0.00 0.00 46 1008.8
20260504194241 72 257 3.0 8.0 0.00 0.00 0.00 46 1009.0
20260504193737 73 55 6.0 9.0 0.00 0.00 0.00 45 1009.1
20260504193235 72 243 9.0 16.0 0.00 0.00 0.00 46 1009.3
20260504192733 72 232 3.0 13.0 0.00 0.00 0.00 45 1009.5
20260504192231 71 140 9.0 13.0 0.00 0.00 0.00 45 1009.8
20260504191729 72 195 4.0 11.0 0.00 0.00 0.00 45 1009.5
20260504191226 73 237 7.0 13.0 0.00 0.00 0.00 45 1009.7
20260504190721 72 248 8.0 14.0 0.00 0.00 0.00 44 1009.5
20260504190218 72 303 3.0 10.0 0.00 0.00 0.00 47 1009.8
20260504185714 71 261 8.0 13.0 0.00 0.00 0.00 44 1009.5
20260504185211 71 324 6.0 10.0 0.00 0.00 0.00 45 1009.4
20260504184707 73 240 9.0 11.0 0.00 0.00 0.00 42 1009.8
20260504184203 72 185 7.0 15.0 0.00 0.00 0.00 44 1009.8
20260504183659 73 247 13.0 17.0 0.00 0.00 0.00 40 1009.8
20260504183156 73 258 23.0 25.0 0.00 0.00 0.00 41 1009.9
20260504182654 73 243 16.0 17.0 0.00 0.00 0.00 41 1010.4
20260504182151 73 273 10.0 11.0 0.00 0.00 0.00 42 1010.2
20260504181649 72 237 9.0 11.0 0.00 0.00 0.00 42 1010.1
20260504181146 73 255 13.0 17.0 0.00 0.00 0.00 40 1010.2
20260504180645 73 238 11.0 17.0 0.00 0.00 0.00 40 1010.5
20260504180143 73 296 11.0 14.0 0.00 0.00 0.00 39 1010.3
20260504175640 72 239 8.0 13.0 0.00 0.00 0.00 44 1010.5
20260504175137 71 228 7.0 14.0 0.00 0.00 0.00 44 1010.6
20260504174636 71 237 14.0 17.0 0.00 0.00 0.00 42 1010.5
20260504174131 71 218 9.0 13.0 0.00 0.00 0.00 44 1010.8
20260504173629 71 173 4.0 15.0 0.00 0.00 0.00 43 1010.8
20260504173126 70 176 7.0 15.0 0.00 0.00 0.00 44 1010.7
20260504172622 69 176 7.0 14.0 0.00 0.00 0.00 47 1011.1
20260504172119 70 96 3.0 15.0 0.00 0.00 0.00 49 1011.1
20260504171615 70 242 6.0 11.0 0.00 0.00 0.00 47 1011.1
20260504171113 70 113 6.0 11.0 0.00 0.00 0.00 46 1011.2
20260504170609 70 239 9.0 17.0 0.00 0.00 0.00 46 1011.2
20260504170107 70 247 6.0 15.0 0.00 0.00 0.00 46 1011.0
20260504150952 65 243 8.0 11.0 0.00 0.00 0.00 49 1012.7
20260504150449 65 199 7.0 10.0 0.00 0.00 0.00 50 1012.8
20260504140916 61 92 4.0 11.0 0.00 0.00 0.00 52 1013.2
20260504140412 60 249 4.0 8.0 0.00 0.00 0.00 52 1013.3
20260504130337 56 252 4.0 10.0 0.00 0.00 0.00 56 1013.7
20260504120300 52 212 8.0 9.0 0.00 0.00 0.00 58 1013.7
20260504110224 46 100 0.0 0.0 0.00 0.00 0.00 67 1013.9
20260504100148 45 147 1.0 1.0 0.00 0.00 0.00 67 1013.8
20260504090110 44 90 0.0 1.0 0.00 0.00 0.00 69 1014.5
20260504081541 42 145 1.0 2.0 0.00 0.00 0.00 72 1014.5
20260504081036 41 101 0.0 0.0 0.00 0.00 0.00 72 1014.6
20260504080533 41 135 0.0 3.0 0.00 0.00 0.00 73 1014.5
20260504050346 43 261 2.0 3.0 0.00 0.00 0.00 69 1015.3
20260504045843 43 254 2.0 3.0 0.00 0.00 0.00 67 1015.3
20260504045338 42 238 2.0 3.0 0.00 0.00 0.00 71 1015.4
20260504044835 42 241 2.0 3.0 0.00 0.00 0.00 71 1015.4
20260504044332 43 282 2.0 3.0 0.00 0.00 0.00 69 1015.3
20260504043830 43 279 2.0 3.0 0.00 0.00 0.00 69 1015.1
20260504043326 43 245 1.0 2.0 0.00 0.00 0.00 68 1015.0
20260504042824 44 261 3.0 4.0 0.00 0.00 0.00 68 1015.3
20260504042320 44 235 1.0 2.0 0.00 0.00 0.00 68 1015.4
20260504041816 44 238 2.0 3.0 0.00 0.00 0.00 67 1015.3
20260504041313 44 223 3.0 7.0 0.00 0.00 0.00 67 1015.3
20260504040809 45 241 2.0 3.0 0.00 0.00 0.00 66 1015.1
20260504040307 46 71 1.0 4.0 0.00 0.00 0.00 65 1015.3
20260504035802 47 242 4.0 6.0 0.00 0.00 0.00 61 1015.0
20260504035300 48 228 3.0 7.0 0.00 0.00 0.00 58 1015.3
20260504034757 50 265 3.0 7.0 0.00 0.00 0.00 54 1015.3
20260504034254 49 237 2.0 6.0 0.00 0.00 0.00 55 1015.1
20260504033751 50 248 4.0 6.0 0.00 0.00 0.00 54 1015.3
20260504033249 50 33 1.0 4.0 0.00 0.00 0.00 52 1015.1
20260504032746 50 250 5.0 6.0 0.00 0.00 0.00 53 1015.4
20260504032243 50 226 2.0 8.0 0.00 0.00 0.00 54 1015.1
20260504031739 50 151 3.0 6.0 0.00 0.00 0.00 54 1015.0
20260504031237 51 231 0.0 4.0 0.00 0.00 0.00 53 1015.3
20260504030732 51 244 6.0 7.0 0.00 0.00 0.00 52 1015.1
20260504030230 50 162 2.0 6.0 0.00 0.00 0.00 53 1014.9
20260504025726 50 277 1.0 6.0 0.00 0.00 0.00 54 1015.0
20260504025223 50 243 2.0 7.0 0.00 0.00 0.00 55 1015.1
20260504024720 51 224 3.0 3.0 0.00 0.00 0.00 54 1015.3
20260504024217 50 222 6.0 8.0 0.00 0.00 0.00 54 1015.5
20260504023714 51 239 1.0 3.0 0.00 0.00 0.00 53 1015.4
20260504023209 50 227 4.0 8.0 0.00 0.00 0.00 53 1015.3
20260504022706 51 239 3.0 6.0 0.00 0.00 0.00 52 1015.1
20260504022202 51 231 3.0 6.0 0.00 0.00 0.00 53 1015.1
20260504021700 51 55 0.0 6.0 0.00 0.00 0.00 54 1015.0
20260504021156 51 208 2.0 7.0 0.00 0.00 0.00 52 1015.1
20260504020653 51 258 4.0 7.0 0.00 0.00 0.00 52 1015.3
20260504020149 51 20 2.0 6.0 0.00 0.00 0.00 53 1015.3
20260504015646 51 205 4.0 7.0 0.00 0.00 0.00 52 1015.1
20260504015143 51 238 4.0 6.0 0.00 0.00 0.00 53 1015.3
20260504014638 51 260 3.0 6.0 0.00 0.00 0.00 52 1015.3
20260504014136 51 230 1.0 4.0 0.00 0.00 0.00 52 1015.1
20260504013633 52 214 2.0 4.0 0.00 0.00 0.00 50 1015.3
20260504013130 51 230 5.0 13.0 0.00 0.00 0.00 50 1015.0
20260504012627 51 221 4.0 6.0 0.00 0.00 0.00 51 1015.1
20260504012125 52 251 9.0 10.0 0.00 0.00 0.00 49 1015.0
20260504011622 52 233 2.0 4.0 0.00 0.00 0.00 50 1014.9
20260504011118 53 121 2.0 6.0 0.00 0.00 0.00 47 1014.9
20260504010614 53 260 10.0 11.0 0.00 0.00 0.00 47 1014.8
20260504010110 54 229 7.0 9.0 0.00 0.00 0.00 47 1014.8
20260504005607 54 127 3.0 11.0 0.00 0.00 0.00 46 1014.8
20260504005104 54 246 9.0 16.0 0.00 0.00 0.00 46 1014.7
20260504004602 54 218 5.0 8.0 0.00 0.00 0.00 46 1014.8
20260504004059 54 244 6.0 19.0 0.00 0.00 0.00 46 1014.8
20260504003555 54 253 9.0 11.0 0.00 0.00 0.00 46 1014.8
20260504003052 54 234 6.0 11.0 0.00 0.00 0.00 46 1014.8
20260504002549 54 236 3.0 6.0 0.00 0.00 0.00 47 1014.5
20260504002046 54 244 7.0 10.0 0.00 0.00 0.00 45 1014.7
20260504001544 54 237 3.0 14.0 0.00 0.00 0.00 45 1014.6
20260504001039 55 247 4.0 7.0 0.00 0.00 0.00 45 1014.7
20260504000537 55 244 8.0 11.0 0.00 0.00 0.00 44 1014.4
20260504000035 55 230 6.0 13.0 0.00 0.00 0.00 44 1014.6
20260503235533 55 238 6.0 8.0 0.00 0.00 0.00 44 1014.5
20260503235029 55 255 5.0 8.0 0.00 0.00 0.00 43 1014.6